Ottumwa, IA

5:42 AM CST on December 10, 2019 (GMT -0600)
Ottumwa Industrial

Weather History for KOTM - October, 2019

Change the Weather History Date:

Sunday, October 20, 2019

  Actual Average Record
Temperature  
Mean Temperature 50 °F 51 °F  
Max Temperature 64 °F 62 °F 85 °F (1953)
Min Temperature 35 °F 40 °F 21 °F (1960)
Degree Days  
Heating Degree Days 15 14  
Month to date heating degree days 261 223  
Since 1 July heating degree days 277 344  
Cooling Degree Days 0 0  
Month to date cooling degree days 16 9  
Year to date cooling degree days 1095 936  
Moisture  
Dew Point 42 °F    
Average Humidity 73    
Maximum Humidity 100    
Minimum Humidity 46    
Precipitation  
Precipitation 0.00 in 0.09 in 0.90 in (1929)
Month to date precipitation 1.93 1.84  
Year to date precipitation 38.13 32.33  
Sea Level Pressure  
Sea Level Pressure 29.83 in    
Wind  
Wind Speed 8 mph (SSE)    
Max Wind Speed 23 mph    
Max Gust Speed 30 mph    
Visibility 4 miles    
Events Fog    
T = Trace of Precipitation, MM = Missing Value Source: NWS Daily Summary

Daily Weather History Graph

Daily Weather History Graph

Search for Another Location

Airport or City:

Astronomy

Oct. 20, 2019 Rise Set
Actual Time 7:26 AM CDT 6:21 PM CDT
Civil Twilight 6:58 AM CDT 6:49 PM CDT
Nautical Twilight 6:26 AM CDT 7:21 PM CDT
Astronomical Twilight 5:54 AM CDT 7:53 PM CDT
Moon 11:29 PM CDT (10/20) 1:57 PM CDT (10/20)
Length of Visible Light 11h 51m
Length of Day
10h 55m
Waning Gibbous, 59% of the Moon is Illuminated
Oct 20
Waning Gibbous
Oct 21
Last Quarter
Oct 27
New
Nov 4
First Quarter
Nov 12
Full

Hourly Weather History & Observations

Time (CDT) Temp. Windchill Dew Point Humidity Pressure Visibility Wind Dir Wind Speed Gust Speed Precip Events Conditions
12:08 AM 42.1 °F 38.4 °F 41.0 °F 96% 29.81 in 0.5 mi SW 5.8 mph - N/A Fog Fog
12:38 AM 43.0 °F 40.3 °F 42.1 °F 97% 29.81 in 3.0 mi WSW 4.6 mph - N/A   Clear
12:53 AM 43.0 °F 40.3 °F 43.0 °F 100% 29.82 in 2.0 mi WSW 4.6 mph - N/A   Clear
1:03 AM 42.1 °F 40.2 °F 42.1 °F 100% 29.81 in 0.8 mi SW 3.5 mph - N/A   Clear
1:37 AM 41.0 °F 39.0 °F 41.0 °F 100% 29.81 in 0.2 mi SSW 3.5 mph - N/A Fog Fog
1:51 AM 41.0 °F 39.0 °F 39.2 °F 93% 29.81 in 0.2 mi SSW 3.5 mph - N/A Fog Fog
1:53 AM 39.9 °F 37.8 °F 39.9 °F 100% 29.82 in 0.2 mi SSW 3.5 mph - N/A Fog Fog
2:08 AM 39.9 °F 36.7 °F 37.9 °F 93% 29.81 in 0.5 mi SSW 4.6 mph - N/A Fog Fog
2:25 AM 39.9 °F 35.8 °F 37.9 °F 93% 29.82 in 0.2 mi SSW 5.8 mph - N/A Fog Fog
2:37 AM 39.0 °F 35.7 °F 37.9 °F 96% 29.82 in 0.5 mi SSW 4.6 mph - N/A Fog Fog
2:53 AM 37.9 °F - 37.9 °F 100% 29.83 in 0.2 mi Calm Calm - N/A Fog Fog
3:00 AM 39.0 °F - 39.0 °F 100% 29.82 in 0.2 mi Calm Calm - N/A Fog Fog
3:29 AM 37.0 °F 33.3 °F 37.0 °F 100% 29.82 in 0.2 mi SSW 4.6 mph - N/A Fog Fog
3:53 AM 37.9 °F - 37.9 °F 100% 29.83 in 0.2 mi Calm Calm - N/A Fog Fog
4:02 AM 37.9 °F 35.5 °F 37.9 °F 100% 29.82 in 0.5 mi SSW 3.5 mph - N/A Fog Fog
4:09 AM 37.0 °F 33.3 °F 37.0 °F 100% 29.82 in 0.2 mi SSW 4.6 mph - N/A Fog Fog
4:51 AM 37.4 °F 34.9 °F 37.4 °F 100% 29.83 in 0.5 mi SSW 3.5 mph - N/A Fog Fog
4:53 AM 37.0 °F 34.5 °F 37.0 °F 100% 29.85 in 0.5 mi SSW 3.5 mph - N/A Fog Fog
5:17 AM 35.1 °F 31.0 °F 35.1 °F 100% 29.84 in 0.2 mi SSW 4.6 mph - N/A Fog Fog
5:53 AM 37.0 °F 34.5 °F 37.0 °F 100% 29.86 in 0.5 mi SSW 3.5 mph - N/A Fog Fog
5:57 AM 36.0 °F 33.3 °F 36.0 °F 100% 29.85 in 0.2 mi South 3.5 mph - N/A Fog Fog
6:53 AM 36.0 °F - 36.0 °F 100% 29.87 in 0.2 mi Calm Calm - N/A Fog Fog
7:53 AM 36.0 °F 32.1 °F 36.0 °F 100% 29.88 in 0.2 mi SSE 4.6 mph - N/A Fog Fog
8:16 AM 37.9 °F 35.5 °F 37.0 °F 97% 29.87 in 1.2 mi SE 3.5 mph - N/A   Scattered Clouds
8:21 AM 39.0 °F 36.8 °F 37.0 °F 93% 29.87 in 0.8 mi SSE 3.5 mph - N/A   Mist
8:35 AM 42.1 °F - 42.1 °F 100% 29.88 in 1.5 mi Calm Calm - N/A   Partly Cloudy
8:38 AM 43.0 °F - 43.0 °F 100% 29.88 in 3.0 mi Calm Calm - N/A   Clear
8:53 AM 45.0 °F 43.5 °F 45.0 °F 100% 29.89 in 7.0 mi SE 3.5 mph - N/A   Clear
9:53 AM 50.0 °F - 50.0 °F 100% 29.90 in 10.0 mi East 4.6 mph - N/A   Clear
10:53 AM 53.1 °F - 51.1 °F 93% 29.90 in 10.0 mi East 6.9 mph - N/A   Clear
11:53 AM 57.9 °F - 50.0 °F 75% 29.90 in 10.0 mi SSE 11.5 mph - N/A   Clear
12:53 PM 60.1 °F - 51.1 °F 72% 29.88 in 10.0 mi SSE 9.2 mph - N/A   Clear
1:53 PM 63.0 °F - 46.0 °F 54% 29.85 in 10.0 mi SE 16.1 mph - N/A   Clear
2:53 PM 63.0 °F - 42.1 °F 46% 29.82 in 10.0 mi SSE 13.8 mph - N/A   Clear
3:53 PM 63.0 °F - 41.0 °F 45% 29.81 in 10.0 mi SE 15.0 mph 26.5 mph N/A   Clear
4:53 PM 61.0 °F - 46.0 °F 58% 29.80 in 10.0 mi SE 17.3 mph - N/A   Clear
5:53 PM 59.0 °F - 46.9 °F 64% 29.79 in 10.0 mi East 8.1 mph - N/A   Clear
6:53 PM 55.9 °F - 46.9 °F 72% 29.78 in 10.0 mi East 6.9 mph - N/A   Clear
7:53 PM 54.0 °F - 44.1 °F 69% 29.78 in 10.0 mi ESE 9.2 mph - N/A   Clear
8:53 PM 52.0 °F - 43.0 °F 71% 29.77 in 10.0 mi ESE 8.1 mph - N/A   Partly Cloudy
9:53 PM 54.0 °F - 45.0 °F 72% 29.75 in 10.0 mi ESE 9.2 mph - N/A   Mostly Cloudy
10:53 PM 54.0 °F - 48.0 °F 80% 29.70 in 10.0 mi ESE 8.1 mph - N/A   Mostly Cloudy
11:53 PM 54.0 °F - 48.9 °F 83% 29.63 in 10.0 mi East 6.9 mph - N/A   Partly Cloudy